When you browse on this site, cookies collect data to enhance your experience and personalize the content and advertising you see.
Visit our Privacy Policy to learn more. By continuing to use the site, you agree to this use of cookies and data.
  • Em Portugal
  • Lista de países
  • Para 7 dias
  • Temperatura da água
  • Mapa do tempo
  • Widgets de tempo
  • user-avatar
    Iniciar Sessão

    Previsão horária em Olot

    Hoje, 20 Agosto, Terça-feira

    Tempo Temperatura Precipitação Vento Pressão Humidade
    00:00 +21°C° 0 mm 1 m/s 724 mmHg 80%
    01:00 +20°C° 0 mm 1 m/s 724 mmHg 80%
    02:00 +20°C° 0 mm 1 m/s 724 mmHg 81%
    03:00 +20°C° 0 mm 1 m/s 724 mmHg 81%
    04:00 +20°C° 0 mm 1 m/s 724 mmHg 81%
    05:00 +20°C° 0 mm 1 m/s 724 mmHg 80%
    06:00 +20°C° 0 mm 1 m/s 724 mmHg 79%
    07:00 +22°C° 0 mm 1 m/s 725 mmHg 72%
    08:00 +24°C° 0 mm 1 m/s 726 mmHg 65%
    09:00 +25°C° 0 mm 2 m/s 726 mmHg 57%
    10:00 +25°C° 0.7 mm 2 m/s 726 mmHg 61%
    11:00 +24°C° 0.7 mm 2 m/s 726 mmHg 65%
    12:00 +24°C° 0.7 mm 3 m/s 727 mmHg 69%
    13:00 +24°C° 0.6 mm 3 m/s 727 mmHg 67%
    14:00 +24°C° 0.6 mm 2 m/s 727 mmHg 66%
    15:00 +24°C° 0.6 mm 2 m/s 726 mmHg 64%
    16:00 +24°C° 0.1 mm 2 m/s 726 mmHg 65%
    17:00 +23°C° 0.1 mm 2 m/s 726 mmHg 67%
    18:00 +23°C° 0.1 mm 2 m/s 726 mmHg 68%
    19:00 +20°C° 0 mm 2 m/s 726 mmHg 72%
    20:00 +20°C° 0 mm 1 m/s 727 mmHg 76%
    21:00 +18°C° 0 mm 1 m/s 727 mmHg 81%
    22:00 +18°C° 0 mm 1 m/s 727 mmHg 80%
    23:00 +18°C° 0 mm 1 m/s 727 mmHg 79%

    Amanhã, 21 Agosto, Quarta-feira

    Tempo Temperatura Precipitação Vento Pressão Humidade
    00:00 +16°C° 0 mm 1 m/s 726 mmHg 78%
    01:00 +16°C° 0 mm 1 m/s 726 mmHg 76%
    02:00 +16°C° 0 mm 1 m/s 726 mmHg 75%
    03:00 +16°C° 0 mm 1 m/s 726 mmHg 74%
    04:00 +16°C° 0 mm 1 m/s 726 mmHg 71%
    05:00 +18°C° 0 mm 1 m/s 725 mmHg 69%
    06:00 +18°C° 0 mm 1 m/s 725 mmHg 67%
    07:00 +21°C° 0 mm 1 m/s 726 mmHg 58%
    08:00 +24°C° 0 mm 1 m/s 726 mmHg 50%
    09:00 +24°C° 0 mm 0 m/s 726 mmHg 42%
    10:00 +28°C° 0 mm 1 m/s 726 mmHg 39%
    11:00 +29°C° 0 mm 1 m/s 726 mmHg 35%
    12:00 +30°C° 0 mm 1 m/s 726 mmHg 32%
    13:00 +30°C° 0 mm 2 m/s 726 mmHg 33%
    14:00 +29°C° 0 mm 2 m/s 725 mmHg 34%
    15:00 +29°C° 0 mm 2 m/s 725 mmHg 35%
    16:00 +27°C° 0 mm 2 m/s 725 mmHg 43%
    17:00 +26°C° 0 mm 1 m/s 725 mmHg 52%
    18:00 +24°C° 0 mm 1 m/s 724 mmHg 61%
    19:00 +23°C° 0 mm 1 m/s 725 mmHg 63%
    20:00 +22°C° 0 mm 1 m/s 725 mmHg 66%
    21:00 +21°C° 0 mm 1 m/s 725 mmHg 69%
    22:00 +21°C° 0 mm 1 m/s 725 mmHg 69%
    23:00 +20°C° 0 mm 1 m/s 725 mmHg 69%

    Depois de amanhã, 22 Agosto, Quinta-feira

    Tempo Temperatura Precipitação Vento Pressão Humidade
    00:00 +20°C° 0 mm 1 m/s 725 mmHg 69%
    01:00 +20°C° 0 mm 1 m/s 725 mmHg 68%
    02:00 +19°C° 0 mm 1 m/s 725 mmHg 68%
    03:00 +19°C° 0 mm 1 m/s 725 mmHg 67%
    04:00 +19°C° 0 mm 1 m/s 725 mmHg 65%
    05:00 +19°C° 0 mm 1 m/s 725 mmHg 63%
    06:00 +19°C° 0 mm 1 m/s 725 mmHg 60%
    07:00 +23°C° 0 mm 1 m/s 726 mmHg 52%
    08:00 +26°C° 0 mm 1 m/s 726 mmHg 44%
    09:00 +29°C° 0 mm 1 m/s 727 mmHg 35%
    10:00 +30°C° 0 mm 1 m/s 727 mmHg 32%
    11:00 +31°C° 0 mm 1 m/s 727 mmHg 28%
    12:00 +32°C° 0 mm 2 m/s 727 mmHg 24%
    13:00 +32°C° 0 mm 2 m/s 726 mmHg 24%
    14:00 +33°C° 0 mm 3 m/s 726 mmHg 25%
    15:00 +33°C° 0 mm 3 m/s 726 mmHg 25%
    16:00 +30°C° 0 mm 3 m/s 725 mmHg 32%
    17:00 +28°C° 0 mm 2 m/s 725 mmHg 40%
    18:00 +26°C° 0 mm 1 m/s 725 mmHg 47%
    19:00 +24°C° 0 mm 1 m/s 725 mmHg 51%
    20:00 +23°C° 0 mm 1 m/s 725 mmHg 54%
    21:00 +20°C° 0 mm 2 m/s 726 mmHg 58%
    22:00 +20°C° 0 mm 2 m/s 726 mmHg 55%
    23:00 +20°C° 0 mm 2 m/s 725 mmHg 52%

    23 Agosto, Sexta-feira

    Tempo Temperatura Precipitação Vento Pressão Humidade
    00:00 +20°C° 0 mm 2 m/s 725 mmHg 49%
    01:00 +19°C° 0 mm 2 m/s 725 mmHg 48%
    02:00 +19°C° 0 mm 2 m/s 725 mmHg 47%
    03:00 +20°C° 0 mm 1 m/s 725 mmHg 46%
    04:00 +20°C° 0 mm 1 m/s 725 mmHg 47%
    05:00 +20°C° 0 mm 1 m/s 725 mmHg 49%
    06:00 +21°C° 0 mm 1 m/s 725 mmHg 50%
    07:00 +24°C° 0 mm 1 m/s 725 mmHg 44%
    08:00 +27°C° 0 mm 1 m/s 726 mmHg 37%
    09:00 +30°C° 0 mm 1 m/s 726 mmHg 31%
    10:00 +31°C° 0 mm 1 m/s 726 mmHg 29%
    11:00 +32°C° 0 mm 2 m/s 726 mmHg 28%
    12:00 +34°C° 0 mm 2 m/s 726 mmHg 26%
    13:00 +34°C° 0 mm 2 m/s 725 mmHg 27%
    14:00 +32°C° 0 mm 2 m/s 725 mmHg 28%
    15:00 +33°C° 0 mm 3 m/s 725 mmHg 29%
    16:00 +30°C° 0 mm 2 m/s 724 mmHg 37%
    17:00 +28°C° 0 mm 1 m/s 724 mmHg 45%
    18:00 +26°C° 0 mm 1 m/s 724 mmHg 53%
    19:00 +25°C° 0 mm 1 m/s 724 mmHg 55%
    20:00 +24°C° 0 mm 1 m/s 724 mmHg 57%
    21:00 +22°C° 0 mm 1 m/s 724 mmHg 59%
    22:00 +22°C° 0 mm 1 m/s 724 mmHg 60%
    23:00 +22°C° 0 mm 1 m/s 724 mmHg 60%

    24 Agosto, Sábado

    Tempo Temperatura Precipitação Vento Pressão Humidade
    00:00 +21°C° 0 mm 1 m/s 724 mmHg 60%
    01:00 +21°C° 0 mm 1 m/s 724 mmHg 60%
    02:00 +21°C° 0 mm 1 m/s 724 mmHg 60%
    03:00 +21°C° 0 mm 1 m/s 724 mmHg 60%
    04:00 +21°C° 0 mm 1 m/s 724 mmHg 60%
    05:00 +21°C° 0 mm 1 m/s 724 mmHg 60%
    06:00 +22°C° 0 mm 1 m/s 724 mmHg 60%
    07:00 +25°C° 0 mm 1 m/s 724 mmHg 53%
    08:00 +27°C° 0 mm 1 m/s 725 mmHg 45%
    09:00 +30°C° 0 mm 1 m/s 725 mmHg 37%
    10:00 +31°C° 0 mm 2 m/s 725 mmHg 36%
    11:00 +32°C° 0 mm 2 m/s 725 mmHg 34%
    12:00 +34°C° 0 mm 2 m/s 725 mmHg 33%
    13:00 +33°C° 0 mm 3 m/s 725 mmHg 36%
    14:00 +31°C° 0 mm 3 m/s 724 mmHg 39%
    15:00 +31°C° 0 mm 3 m/s 724 mmHg 42%
    16:00 +29°C° 0 mm 2 m/s 724 mmHg 48%
    17:00 +28°C° 0 mm 2 m/s 724 mmHg 55%
    18:00 +27°C° 0 mm 1 m/s 723 mmHg 61%
    19:00 +25°C° 0 mm 1 m/s 723 mmHg 64%
    20:00 +24°C° 0 mm 1 m/s 724 mmHg 67%
    21:00 +23°C° 0 mm 1 m/s 724 mmHg 70%
    22:00 +22°C° 0 mm 1 m/s 724 mmHg 69%
    23:00 +22°C° 0 mm 1 m/s 724 mmHg 68%

    25 Agosto, Domingo

    Tempo Temperatura Precipitação Vento Pressão Humidade
    00:00 +22°C° 0 mm 1 m/s 723 mmHg 68%
    01:00 +22°C° 0 mm 1 m/s 723 mmHg 67%
    02:00 +22°C° 0 mm 1 m/s 723 mmHg 67%
    03:00 +21°C° 0 mm 1 m/s 723 mmHg 67%
    04:00 +21°C° 0 mm 1 m/s 723 mmHg 66%
    05:00 +22°C° 0 mm 1 m/s 723 mmHg 65%
    06:00 +22°C° 0 mm 1 m/s 723 mmHg 64%
    07:00 +25°C° 0 mm 1 m/s 723 mmHg 57%
    08:00 +27°C° 0 mm 1 m/s 724 mmHg 50%
    09:00 +30°C° 0 mm 1 m/s 724 mmHg 43%
    10:00 +31°C° 0 mm 2 m/s 724 mmHg 41%
    11:00 +31°C° 0 mm 2 m/s 724 mmHg 39%
    12:00 +33°C° 0 mm 3 m/s 724 mmHg 37%
    13:00 +31°C° 0.2 mm 2 m/s 724 mmHg 42%
    14:00 +30°C° 0.2 mm 2 m/s 723 mmHg 48%
    15:00 +29°C° 0.2 mm 2 m/s 723 mmHg 54%
    16:00 +28°C° 0.2 mm 2 m/s 723 mmHg 59%
    17:00 +26°C° 0.2 mm 1 m/s 723 mmHg 63%
    18:00 +25°C° 0.2 mm 1 m/s 723 mmHg 68%
    19:00 +24°C° 0 mm 1 m/s 723 mmHg 70%
    20:00 +24°C° 0 mm 1 m/s 723 mmHg 71%
    21:00 +23°C° 0 mm 1 m/s 724 mmHg 73%
    22:00 +23°C° 0 mm 1 m/s 724 mmHg 72%
    23:00 +22°C° 0 mm 1 m/s 724 mmHg 71%
    Mostrar mais